When you browse on this site, cookies collect data to enhance your experience and personalize the content and advertising you see.
Visit our Privacy Policy to learn more. By continuing to use the site, you agree to this use of cookies and data.

Stündliche Wetter Phnom Penh

Heute, 13 August, Donnerstag

Zeit Temperatur Niederschläge Wind Luftdruck Luftfeuchtigkeit
00:00 +28°C° 0 mm 2 m/S 756 mmHg 84%
01:00 +28°C° 0 mm 2 m/S 755 mmHg 85%
02:00 +28°C° 0 mm 2 m/S 755 mmHg 85%
03:00 +28°C° 0 mm 2 m/S 755 mmHg 85%
04:00 +28°C° 0 mm 2 m/S 754 mmHg 85%
05:00 +28°C° 0 mm 2 m/S 755 mmHg 84%
06:00 +28°C° 0 mm 2 m/S 755 mmHg 83%
07:00 +28°C° 0 mm 2 m/S 755 mmHg 82%
08:00 +29°C° 0 mm 3 m/S 755 mmHg 77%
09:00 +31°C° 0 mm 3 m/S 755 mmHg 72%
10:00 +33°C° 0 mm 4 m/S 755 mmHg 66%
11:00 +34°C° 0 mm 4 m/S 755 mmHg 62%
12:00 +35°C° 0 mm 4 m/S 755 mmHg 58%
13:00 +36°C° 0 mm 4 m/S 754 mmHg 54%
14:00 +35°C° 2.3 mm 4 m/S 754 mmHg 58%
15:00 +34°C° 2.3 mm 4 m/S 753 mmHg 63%
16:00 +33°C° 2.3 mm 3 m/S 753 mmHg 68%
17:00 +32°C° 3.5 mm 4 m/S 753 mmHg 75%
18:00 +29°C° 3.5 mm 4 m/S 754 mmHg 81%
19:00 +28°C° 3.5 mm 4 m/S 754 mmHg 88%
20:00 +28°C° 1.9 mm 4 m/S 755 mmHg 89%
21:00 +27°C° 1.9 mm 4 m/S 756 mmHg 91%
22:00 +27°C° 1.9 mm 4 m/S 756 mmHg 93%
23:00 +27°C° 0.3 mm 3 m/S 756 mmHg 92%

Morgen, 14 August, Freitag

Zeit Temperatur Niederschläge Wind Luftdruck Luftfeuchtigkeit
00:00 +27°C° 0.3 mm 2 m/S 756 mmHg 92%
01:00 +27°C° 0.3 mm 2 m/S 755 mmHg 92%
02:00 +27°C° 0.1 mm 2 m/S 755 mmHg 92%
03:00 +27°C° 0.1 mm 1 m/S 755 mmHg 92%
04:00 +27°C° 0.1 mm 1 m/S 755 mmHg 92%
05:00 +27°C° 0 mm 1 m/S 755 mmHg 91%
06:00 +27°C° 0 mm 2 m/S 755 mmHg 90%
07:00 +27°C° 0 mm 2 m/S 756 mmHg 88%
08:00 +28°C° 0.1 mm 2 m/S 756 mmHg 85%
09:00 +28°C° 0.1 mm 2 m/S 756 mmHg 83%
10:00 +29°C° 0.1 mm 3 m/S 757 mmHg 80%
11:00 +29°C° 0.4 mm 3 m/S 756 mmHg 78%
12:00 +30°C° 0.4 mm 4 m/S 756 mmHg 76%
13:00 +30°C° 0.4 mm 4 m/S 755 mmHg 74%
14:00 +29°C° 0 mm 3 m/S 755 mmHg 77%
15:00 +29°C° 0 mm 3 m/S 754 mmHg 81%
16:00 +28°C° 0 mm 3 m/S 754 mmHg 84%
17:00 +28°C° 0 mm 2 m/S 754 mmHg 85%
18:00 +27°C° 0 mm 1 m/S 754 mmHg 86%
19:00 +27°C° 0 mm 1 m/S 755 mmHg 88%
20:00 +27°C° 0 mm 1 m/S 755 mmHg 88%
21:00 +27°C° 0 mm 1 m/S 756 mmHg 89%
22:00 +27°C° 0 mm 1 m/S 756 mmHg 89%
23:00 +27°C° 0 mm 1 m/S 756 mmHg 90%

übermorgen, 15 August, Samstag

Zeit Temperatur Niederschläge Wind Luftdruck Luftfeuchtigkeit
00:00 +27°C° 0 mm 1 m/S 756 mmHg 90%
01:00 +27°C° 0 mm 1 m/S 755 mmHg 91%
02:00 +25°C° 0 mm 0 m/S 755 mmHg 91%
03:00 +25°C° 0 mm 0 m/S 754 mmHg 91%
04:00 +25°C° 0 mm 0 m/S 754 mmHg 92%
05:00 +25°C° 0 mm 0 m/S 755 mmHg 91%
06:00 +27°C° 0 mm 1 m/S 755 mmHg 90%
07:00 +27°C° 0 mm 1 m/S 756 mmHg 89%
08:00 +29°C° 0.1 mm 1 m/S 756 mmHg 83%
09:00 +30°C° 0.1 mm 1 m/S 756 mmHg 77%
10:00 +31°C° 0.1 mm 1 m/S 756 mmHg 71%
11:00 +32°C° 0.3 mm 1 m/S 755 mmHg 67%
12:00 +32°C° 0.3 mm 1 m/S 755 mmHg 63%
13:00 +33°C° 0.3 mm 1 m/S 754 mmHg 60%
14:00 +33°C° 0.2 mm 1 m/S 753 mmHg 59%
15:00 +34°C° 0.2 mm 1 m/S 753 mmHg 58%
16:00 +34°C° 0.2 mm 1 m/S 752 mmHg 57%
17:00 +33°C° 0.8 mm 1 m/S 753 mmHg 63%
18:00 +31°C° 0.8 mm 1 m/S 753 mmHg 69%
19:00 +30°C° 0.8 mm 1 m/S 754 mmHg 76%
20:00 +30°C° 0.7 mm 1 m/S 754 mmHg 77%
21:00 +30°C° 0.7 mm 1 m/S 755 mmHg 78%
22:00 +29°C° 0.7 mm 1 m/S 756 mmHg 79%
23:00 +29°C° 0 mm 1 m/S 756 mmHg 81%

16 August, Sonntag

Zeit Temperatur Niederschläge Wind Luftdruck Luftfeuchtigkeit
00:00 +28°C° 0 mm 2 m/S 755 mmHg 82%
01:00 +28°C° 0 mm 2 m/S 755 mmHg 84%
02:00 +28°C° 0 mm 2 m/S 755 mmHg 85%
03:00 +27°C° 0 mm 2 m/S 755 mmHg 85%
04:00 +27°C° 0 mm 2 m/S 754 mmHg 86%
05:00 +27°C° 0 mm 2 m/S 755 mmHg 85%
06:00 +28°C° 0 mm 2 m/S 755 mmHg 84%
07:00 +28°C° 0 mm 2 m/S 755 mmHg 83%
08:00 +29°C° 0 mm 2 m/S 755 mmHg 76%
09:00 +31°C° 0 mm 2 m/S 756 mmHg 68%
10:00 +34°C° 0 mm 3 m/S 756 mmHg 61%
11:00 +34°C° 0.2 mm 3 m/S 755 mmHg 58%
12:00 +35°C° 0.2 mm 3 m/S 755 mmHg 56%
13:00 +36°C° 0.2 mm 3 m/S 754 mmHg 53%
14:00 +35°C° 0.3 mm 3 m/S 753 mmHg 55%
15:00 +35°C° 0.3 mm 3 m/S 753 mmHg 56%
16:00 +35°C° 0.3 mm 3 m/S 752 mmHg 58%
17:00 +33°C° 1.9 mm 3 m/S 753 mmHg 65%
18:00 +31°C° 1.9 mm 3 m/S 754 mmHg 72%
19:00 +29°C° 1.9 mm 2 m/S 754 mmHg 80%
20:00 +29°C° 0 mm 2 m/S 755 mmHg 81%
21:00 +29°C° 0 mm 2 m/S 755 mmHg 82%
22:00 +29°C° 0 mm 1 m/S 756 mmHg 84%
23:00 +28°C° 0.1 mm 1 m/S 756 mmHg 84%

17 August, Montag

Zeit Temperatur Niederschläge Wind Luftdruck Luftfeuchtigkeit
00:00 +28°C° 0.1 mm 1 m/S 755 mmHg 85%
01:00 +28°C° 0.1 mm 1 m/S 755 mmHg 86%
02:00 +28°C° 0.1 mm 1 m/S 755 mmHg 86%
03:00 +27°C° 0.1 mm 1 m/S 755 mmHg 87%
04:00 +25°C° 0.1 mm 0 m/S 754 mmHg 87%
05:00 +25°C° 0 mm 0 m/S 755 mmHg 85%
06:00 +26°C° 0 mm 0 m/S 755 mmHg 84%
07:00 +26°C° 0 mm 0 m/S 755 mmHg 82%
08:00 +27°C° 0 mm 0 m/S 755 mmHg 76%
09:00 +31°C° 0 mm 1 m/S 756 mmHg 70%
10:00 +32°C° 0 mm 1 m/S 756 mmHg 64%
11:00 +33°C° 0.6 mm 1 m/S 755 mmHg 61%
12:00 +33°C° 0.6 mm 1 m/S 754 mmHg 58%
13:00 +34°C° 0.6 mm 1 m/S 754 mmHg 55%
14:00 +34°C° 0.5 mm 1 m/S 753 mmHg 55%
15:00 +34°C° 0.5 mm 1 m/S 753 mmHg 56%
16:00 +34°C° 0.5 mm 1 m/S 752 mmHg 56%
17:00 +33°C° 0.4 mm 1 m/S 753 mmHg 62%
18:00 +32°C° 0.4 mm 1 m/S 753 mmHg 68%
19:00 +31°C° 0.4 mm 1 m/S 754 mmHg 74%
20:00 +30°C° 0 mm 2 m/S 754 mmHg 76%
21:00 +30°C° 0 mm 2 m/S 755 mmHg 77%
22:00 +30°C° 0 mm 2 m/S 755 mmHg 79%
23:00 +29°C° 0 mm 2 m/S 755 mmHg 80%

18 August, Dienstag

Zeit Temperatur Niederschläge Wind Luftdruck Luftfeuchtigkeit
00:00 +29°C° 0 mm 2 m/S 755 mmHg 81%
01:00 +28°C° 0 mm 2 m/S 755 mmHg 82%
02:00 +28°C° 0 mm 2 m/S 754 mmHg 83%
03:00 +28°C° 0 mm 2 m/S 754 mmHg 84%
04:00 +27°C° 0 mm 2 m/S 754 mmHg 85%
05:00 +28°C° 0 mm 2 m/S 754 mmHg 84%
06:00 +28°C° 0 mm 2 m/S 755 mmHg 83%
07:00 +28°C° 0 mm 2 m/S 755 mmHg 82%
08:00 +29°C° 0 mm 2 m/S 755 mmHg 76%
09:00 +31°C° 0 mm 2 m/S 755 mmHg 69%
10:00 +33°C° 0 mm 3 m/S 755 mmHg 62%
11:00 +34°C° 0.1 mm 2 m/S 755 mmHg 58%
12:00 +35°C° 0.1 mm 2 m/S 754 mmHg 54%
13:00 +36°C° 0.1 mm 2 m/S 753 mmHg 50%
14:00 +36°C° 0.1 mm 2 m/S 753 mmHg 50%
15:00 +36°C° 0.1 mm 3 m/S 752 mmHg 51%
16:00 +36°C° 0.1 mm 3 m/S 752 mmHg 51%
17:00 +35°C° 0 mm 3 m/S 753 mmHg 58%
18:00 +33°C° 0 mm 3 m/S 753 mmHg 65%
19:00 +31°C° 0 mm 3 m/S 754 mmHg 72%
20:00 +30°C° 0 mm 2 m/S 754 mmHg 74%
21:00 +30°C° 0 mm 2 m/S 755 mmHg 75%
22:00 +30°C° 0 mm 1 m/S 756 mmHg 77%
23:00 +29°C° 0 mm 2 m/S 755 mmHg 78%
Mehr zeigen